STARLINK-34346, 64155

Orbit data source: Space-Track

STARLINK-34346, 64155 is a payload satellite owned by SpaceX/Seattle (US) in SSO that was launched on Tue, 27 May 2025 UTC via an FALCON 9 launch vehicle from the Air Force Western Test Range (AFWTR). Payload-class satellites include a variety of spacecraft equipped with specific instruments for various scientific and technological missions. These include communications satellites like Starlink; space stations such as the ISS; scientific satellites like the Hubble; Earth observation satellites from companies like Planet Labs, Umbra, and HawkEye 360; GPS; miniature CubeSats for education and research; and military/defense satellites.

Loading next visibility...
Identifier
64155, 2025-112K
Orbit
SSO
Country
Flag of USUS
Related business
Manufacturer
SpaceX/Seattle
Mission
Operational Commercial Communications
Bus & Motor
STARLINK V2MO, Unknown motor
Mass
575 kg wet, ~530 kg dry
Launch date (UTC)
2025-05-27 (1 year ago)
Launch vehicle
FALCON 9
Launch site
Air Force Western Test Range (AFWTR)
Object type
Payload
Rocket body
Debris
Shape & HBR
Box + 1 Pan, 17.7 m
Radar Cross Section
41.120 m², Large (>1 m²)

Expand to show TLE details & history
Last TLE update: 10 hours ago

TLE from 10 hours ago
0 STARLINK-34346
1 64155U 25112K   26238.08927412  .00015617  00000-0  48452-3 0  9992
2 64155  97.2825 285.5248 0002054 109.9935 250.1529 15.33478684 68857
Epoch: 2026-08-26T02:08Z
TLE epoch observation values (Epoch: 2026-08-26T02:08:33.283Z)
Latitude
-0.00006°
Longitude
-80.96115°
Altitude
469.033 km
Speed
7.631 km/s
True Right ascension
19h 02m 05s
True Declination
0° 00' 00"
Sunlit
Object was in full shadow at epoch
Visualization orbit readout
Latitude
Unknown
Longitude
Unknown
Altitude
Unknown
Speed
Unknown
Apparent Right ascension
Unknown
Apparent Declination
Unknown
Sunlit
N/A
Visualization observer readout
Local Sidereal Time
02:58:09
Azimuth
Unknown
Elevation
Unknown
Doppler factor
Unknown
Orbital elements
Apogee altitude
463.791 km
Perigee altitude
460.981 km
Semi-major axis
6,840.523 km
Eccentricity
0.00021
Inclination
97.2825°
RAAN
285.5248°
Arg. of periapsis
109.9935°
True anomaly
250.13076°
Mean anomaly
250.1529°
Eccentric anomaly
250.14183°
Mean motion
3.83627 °/min
Orbital period
93.84 mins
BSTAR
0.00048452
Loading maneuver chart data...
Computing Atmospheric mass density...
Loading historical data...
Loading historical data...
Loading historical data...
Loading historical data...
Loading historical data...
Loading historical data...
Loading historical data...

Documentation

Showing up to 5 results
|